Date String (YYYY-MM-DD hh:mm:ss) UTC,Instrument flags,Ambient pressure (hPa),Sample flow (lpm),Bypass flow (lpm),Sample temperature (°C),Ambient temperature (°C),ASC tube jacket temperature (°C),LED temperature (°C),Box temperature (°C),Sample RH (%),Span deviation,Mass concentration (μg/m³),Mass concentration (μg/m³),Mass concentration (μg/m³)
DateTimeUTC,F1_M11,P_M11,Q1_M11,Q2_M11,T1_M11,T2_M11,T3_M11,T4_M11,T5_M11,U1_M11,ZSPAN_M11,X0_M11,X2_M11,X1_M11
2022-08-08 04:00:00,,0833.9,4.99,0.00,32.7,27.3,00.0,40.5,32.3,34.8,0000.0,0007.82,0004.47,0003.91
2022-08-08 04:01:00,,0833.8,5.00,0.00,32.6,27.4,00.0,40.5,32.3,35.2,0000.0,0007.96,0004.47,0003.92
2022-08-08 04:02:00,,0833.8,5.00,0.00,32.6,27.6,00.0,40.4,32.4,35.2,0000.0,0007.88,0004.47,0003.95
2022-08-08 04:03:00,,0833.8,4.99,0.00,32.9,27.8,00.0,40.4,32.6,34.7,0000.0,0007.91,0004.50,0003.99
2022-08-08 04:04:00,,0833.8,5.02,0.00,33.0,27.9,00.0,40.4,32.6,34.2,0000.0,0008.04,0004.55,0004.00
2022-08-08 04:05:00,,0833.8,4.99,0.00,33.0,28.1,00.0,40.5,32.6,34.0,0000.0,0008.06,0004.57,0004.02
2022-08-08 04:06:00,,0833.8,5.00,0.00,33.0,28.2,00.0,40.5,32.6,34.3,0000.0,0007.99,0004.55,0004.02
2022-08-08 04:07:00,,0833.9,5.00,0.00,32.9,28.4,00.0,40.5,32.6,34.5,0000.0,0008.02,0004.58,0004.05
2022-08-08 04:08:00,,0833.8,5.01,0.00,32.8,28.5,00.0,40.6,32.6,34.9,0000.0,0008.04,0004.60,0004.07
2022-08-08 04:09:00,,0833.9,5.00,0.00,32.8,28.6,00.0,40.6,32.6,34.9,0000.0,0008.02,0004.61,0004.08
2022-08-08 04:10:00,,0833.9,5.00,0.00,32.7,28.7,00.0,40.6,32.6,34.4,0000.0,0007.98,0004.62,0004.09
2022-08-08 04:11:00,,0833.9,5.00,0.00,32.7,28.7,00.0,40.6,32.6,34.4,0000.0,0007.96,0004.66,0004.11
2022-08-08 04:12:00,,0833.7,5.00,0.00,32.6,28.8,00.0,40.6,32.6,35.2,0000.0,0007.72,0004.68,0004.14
2022-08-08 04:13:00,,0833.7,5.00,0.00,32.7,28.9,00.0,40.6,32.8,35.2,0000.0,0007.79,0004.70,0004.13
2022-08-08 04:14:00,,0833.7,4.99,0.00,32.8,28.9,00.0,40.6,32.9,34.3,0000.0,0007.81,0004.72,0004.12
2022-08-08 04:15:00,,0833.7,5.00,0.00,32.9,29.0,00.0,40.6,32.9,34.0,0000.0,0007.73,0004.69,0004.11
2022-08-08 04:16:00,,0833.7,5.00,0.00,32.9,29.1,00.0,40.7,32.9,34.1,0000.0,0007.69,0004.65,0004.09
2022-08-08 04:17:00,,0833.7,5.00,0.00,32.9,29.1,00.0,40.7,32.9,34.2,0000.0,0007.73,0004.66,0004.10
2022-08-08 04:18:00,,0833.6,5.00,0.00,32.9,29.2,00.0,40.7,32.9,33.9,0000.0,0007.71,0004.66,0004.11
2022-08-08 04:19:00,,0833.7,4.99,0.00,32.8,28.9,00.0,40.7,32.8,33.9,0000.0,0007.79,0004.67,0004.09
2022-08-08 04:20:00,,0833.6,5.01,0.00,32.8,28.3,00.0,40.7,32.7,34.3,0000.0,0007.79,0004.65,0004.08
2022-08-08 04:21:00,,0833.6,4.99,0.00,32.7,28.0,00.0,40.7,32.6,34.9,0000.0,0007.90,0004.69,0004.08
2022-08-08 04:22:00,,0833.6,4.99,0.00,32.5,27.9,00.0,40.6,32.5,34.8,0000.0,0007.86,0004.67,0004.07
2022-08-08 04:23:00,,0833.6,5.01,0.00,32.5,28.0,00.0,40.6,32.5,33.6,0000.0,0007.81,0004.64,0004.04
2022-08-08 04:24:00,,0833.6,4.98,0.00,32.5,28.1,00.0,40.6,32.5,33.9,0000.0,0007.82,0004.63,0004.04
2022-08-08 04:25:00,,0833.6,5.01,0.00,32.5,28.2,00.0,40.5,32.5,34.2,0000.0,0007.80,0004.60,0004.03
2022-08-08 04:26:00,,0833.6,4.99,0.00,32.4,28.3,00.0,40.5,32.5,34.2,0000.0,0007.87,0004.59,0004.02
2022-08-08 04:27:00,,0833.6,5.01,0.00,32.3,28.5,00.0,40.5,32.5,34.0,0000.0,0007.91,0004.61,0004.02
2022-08-08 04:28:00,,0833.5,5.00,0.00,32.3,28.6,00.0,40.5,32.5,34.1,0000.0,0007.93,0004.62,0004.01
2022-08-08 04:29:00,,0833.5,5.00,0.00,32.2,28.7,00.0,40.5,32.6,34.4,0000.0,0007.96,0004.63,0004.01
2022-08-08 04:30:00,,0833.6,5.00,0.00,32.1,28.8,00.0,40.5,32.5,34.5,0000.0,0008.05,0004.59,0003.99
2022-08-08 04:31:00,,0833.6,5.00,0.00,32.1,28.8,00.0,40.4,32.6,34.4,0000.0,0008.46,0004.58,0003.99
2022-08-08 04:32:00,,0833.5,5.00,0.00,32.0,28.9,00.0,40.4,32.6,34.6,0000.0,0008.43,0004.56,0004.00
2022-08-08 04:33:00,,0833.5,5.02,0.00,32.0,29.0,00.0,40.4,32.6,34.5,0000.0,0008.34,0004.53,0004.00
2022-08-08 04:34:00,,0833.6,5.00,0.00,31.9,29.0,00.0,40.4,32.6,34.2,0000.0,0008.37,0004.53,0003.99
2022-08-08 04:35:00,,0833.6,5.00,0.00,31.9,29.1,00.0,40.4,32.6,34.4,0000.0,0008.37,0004.51,0003.98
2022-08-08 04:36:00,,0833.6,4.99,0.00,31.9,29.1,00.0,40.3,32.6,34.6,0000.0,0008.34,0004.51,0003.96
2022-08-08 04:37:00,,0833.5,5.00,0.00,31.8,28.9,00.0,40.3,32.6,34.9,0000.0,0008.36,0004.56,0003.96
2022-08-08 04:38:00,,0833.5,5.01,0.00,31.8,28.3,00.0,40.2,32.4,35.0,0000.0,0008.40,0004.57,0003.97
2022-08-08 04:39:00,,0833.5,5.00,0.00,31.8,27.9,00.0,40.2,32.5,35.2,0000.0,0008.36,0004.55,0003.96
2022-08-08 04:40:00,,0833.5,4.99,0.00,31.9,27.8,00.0,40.1,32.5,35.0,0000.0,0008.37,0004.53,0003.95
2022-08-08 04:41:00,,0833.5,5.01,0.00,32.0,27.9,00.0,40.1,32.5,35.2,0000.0,0008.23,0004.52,0003.94
2022-08-08 04:42:00,,0833.5,5.00,0.00,32.2,28.0,00.0,40.1,32.6,34.6,0000.0,0007.79,0004.53,0003.93
2022-08-08 04:43:00,,0833.6,5.00,0.00,32.3,28.1,00.0,40.1,32.6,34.3,0000.0,0007.74,0004.53,0003.93
2022-08-08 04:44:00,,0833.6,4.99,0.00,32.3,28.3,00.0,40.1,32.5,34.4,0000.0,0007.71,0004.51,0003.92
2022-08-08 04:45:00,,0833.5,5.01,0.00,32.3,28.4,00.0,40.1,32.5,34.9,0000.0,0007.77,0004.51,0003.92
2022-08-08 04:46:00,,0833.5,4.99,0.00,32.3,28.5,00.0,40.2,32.5,34.4,0000.0,0007.71,0004.50,0003.92
2022-08-08 04:47:00,,0833.6,5.02,0.00,32.3,28.6,00.0,40.2,32.6,34.2,0000.0,0007.73,0004.52,0003.94
2022-08-08 04:48:00,,0833.6,5.00,0.00,32.3,28.7,00.0,40.2,32.6,34.3,0000.0,0007.66,0004.48,0003.95
2022-08-08 04:49:00,,0833.5,4.99,0.00,32.2,28.8,00.0,40.3,32.6,34.4,0000.0,0007.62,0004.46,0003.95
2022-08-08 04:50:00,,0833.5,5.00,0.00,32.2,28.8,00.0,40.3,32.6,34.1,0000.0,0007.72,0004.51,0003.98
2022-08-08 04:51:00,,0833.5,5.00,0.00,32.2,28.9,00.0,40.3,32.6,34.2,0000.0,0007.83,0004.57,0004.00
2022-08-08 04:52:00,,0833.6,5.00,0.00,32.1,28.9,00.0,40.3,32.6,34.5,0000.0,0007.85,0004.62,0004.03
2022-08-08 04:53:00,,0833.5,5.00,0.00,32.0,29.0,00.0,40.3,32.6,34.8,0000.0,0007.82,0004.64,0004.06
2022-08-08 04:54:00,,0833.5,5.00,0.00,32.0,29.0,00.0,40.3,32.6,34.8,0000.0,0007.89,0004.67,0004.09
2022-08-08 04:55:00,,0833.5,5.01,0.00,31.9,28.9,00.0,40.3,32.6,34.7,0000.0,0007.94,0004.71,0004.12
2022-08-08 04:56:00,,0833.4,5.00,0.00,31.9,28.3,00.0,40.2,32.4,35.1,0000.0,0007.93,0004.75,0004.15
2022-08-08 04:57:00,,0833.4,5.00,0.00,31.9,27.6,00.0,40.2,32.3,35.2,0000.0,0008.05,0004.81,0004.17
2022-08-08 04:58:00,,0833.3,5.00,0.00,32.1,27.3,00.0,40.1,32.4,35.2,0000.0,0008.11,0004.82,0004.18
2022-08-08 04:59:00,,0833.3,5.00,0.00,32.2,27.3,00.0,40.1,32.4,34.9,0000.0,0008.09,0004.82,0004.19
